Вернуться в каталог

STARLINK-4738

АктивенСвязьVLEO
NORAD 53819·PAYLOAD·🇺🇸 United States

Запущен Sep 19, 2022 с Cape Canaveral Space Force Station

Loading…

Ближайшие Пролёты (ближайшие 24 часа)

TLE

СвежийSource: CelesTrak SupGP

Эпоха: Sep 15, 2026, 02:42 UTC

1 53819C 22114B   26258.11298611  .00009391  00000+0  30199-3 0  2582
2 53819  53.1585 160.9067 0001759  85.8908 232.6824 15.31697440    12

Отслеживайте STARLINK-4738 в реальном времени с AllMySat

Download on the App Store